Zurück zum Katalog

COSMOS 874

AktivMilitärLEO
NORAD 9591·PAYLOAD·🇷🇺 Russia

Gestartet Dec 7, 1976 von Plesetsk Cosmodrome

Loading…

Nächste Überflüge (nächste 24 Stunden)

TLE

AktuellSource: Space-Track

Epoche: Sep 14, 2026, 14:55 UTC

1 09591U 76118D   26257.62204155 -.00000006  00000-0  69304-4 0  9997
2 09591  74.0285 119.5000 0033482 259.5903 127.9111 12.44004539260126

Verfolge COSMOS 874 in Echtzeit mit AllMySat

Download on the App Store